Date,TemperatureHighF,TemperatureAvgF,TemperatureLowF,DewpointHighF,DewpointAvgF,DewpointLowF,HumidityHigh,HumidityAvg,HumidityLow,PressureMaxIn,PressureMinIn,WindSpeedMaxMPH,WindSpeedAvgMPH,GustSpeedMaxMPH,PrecipitationSumIn
2013-1-1,18.0,12.4,3.0,9.0,3.1,-2.0,92,67,54,0.00,40.00,29,16,39,0.00
2013-1-2,16.0,13.1,10.0,6.0,2.7,-3.0,73,63,53,0.00,40.00,26,20,34,0.00
2013-1-3,18.0,12.1,6.0,6.0,-2.7,-9.0,71,52,33,0.00,40.00,18,7,25,0.00
2013-1-4,29.0,14.1,6.0,13.0,0.7,-7.0,67,55,38,0.00,40.00,9,3,11,0.00
2013-1-5,12.0,7.9,4.0,-1.0,-3.2,-5.0,67,60,54,0.00,40.00,8,4,10,0.00
2013-1-7,38.0,32.8,18.0,16.0,6.1,-7.0,57,33,19,0.00,40.00,50,16,68,0.00
2013-1-8,30.0,28.2,25.0,18.0,17.3,15.0,74,63,54,0.00,40.00,45,34,62,0.00
2013-1-9,41.0,31.0,23.0,24.0,15.5,2.0,72,53,26,0.00,40.00,32,8,44,0.00
2013-1-10,46.0,35.4,27.0,16.0,8.2,0.0,56,34,16,0.00,40.00,32,12,44,0.00
2013-1-11,34.0,17.3,2.0,24.0,9.5,-3.0,97,73,42,0.00,40.00,35,21,49,0.08
2013-1-12,3.0,-1.6,-9.0,-1.0,-5.7,-13.0,87,82,69,0.00,40.00,19,7,26,0.00
2013-1-13,0.0,-4.9,-12.0,-4.0,-8.8,-17.0,86,83,73,0.00,40.00,8,3,9,0.00
2013-1-14,6.0,-3.4,-12.0,-7.0,-13.1,-19.0,77,63,47,0.00,40.00,30,8,41,0.00
2013-1-15,27.0,17.0,2.0,19.0,6.4,-14.0,72,63,46,0.00,40.00,31,22,42,0.00
2013-1-16,35.0,23.9,14.0,18.0,13.3,7.0,81,64,42,0.00,40.00,28,10,36,0.00
2013-1-17,35.0,24.0,11.0,17.0,8.3,2.0,76,54,25,0.00,40.00,32,8,45,0.00
2013-1-18,39.0,34.8,32.0,7.0,4.1,2.0,31,27,23,0.00,40.00,40,30,51,0.00
2013-1-19,42.0,35.2,30.0,6.0,1.4,-5.0,35,24,14,0.00,40.00,38,26,50,0.00
2013-1-20,39.0,31.9,28.0,10.0,3.5,0.0,40,30,22,0.00,40.00,34,20,47,0.00
2013-1-21,38.0,32.9,28.0,11.0,5.9,-3.0,43,32,17,0.00,40.00,39,31,52,0.00
2013-1-22,44.0,39.5,34.0,0.0,-5.8,-14.0,21,14,9,0.00,40.00,48,32,63,0.00
2013-1-23,52.0,44.6,35.0,7.0,-3.8,-15.0,30,13,8,0.00,40.00,32,20,47,0.00
2013-1-24,45.0,38.1,33.0,30.0,15.7,1.0,92,45,18,0.00,40.00,46,22,62,0.17
2013-1-25,42.0,36.9,30.0,27.0,24.1,21.0,71,60,47,0.00,40.00,39,12,58,0.00
2013-1-26,47.0,38.5,33.0,28.0,25.0,22.0,76,59,37,0.00,40.00,13,6,26,0.00
2013-1-27,44.0,35.8,28.0,29.0,22.9,16.0,96,62,34,0.00,40.00,29,13,44,0.00
2013-1-28,36.0,24.5,13.0,25.0,13.5,-0.0,90,63,46,0.00,40.00,29,16,40,0.00
2013-1-29,18.0,12.4,8.0,8.0,2.0,-2.0,91,64,42,0.00,40.00,27,16,37,0.05
2013-1-30,26.0,18.1,7.0,20.0,10.5,-1.0,88,72,61,0.00,40.00,45,31,58,0.02
2013-1-31,27.0,25.6,22.0,22.0,18.0,16.0,89,73,63,0.00,40.00,39,33,52,0.07
2013-2-1,29.0,26.6,24.0,24.0,19.7,16.0,94,75,64,0.00,40.00,36,28,52,0.05
2013-2-2,37.0,30.6,23.0,18.0,10.9,7.0,76,46,30,0.00,40.00,37,25,49,0.00
2013-2-3,40.0,33.6,21.0,8.0,3.7,-4.0,54,29,17,0.00,40.00,31,19,45,0.00
2013-2-4,35.0,31.3,28.0,16.0,9.9,4.0,55,41,33,0.00,40.00,43,27,60,0.00
2013-2-5,44.0,37.4,30.0,22.0,17.4,12.0,58,45,28,0.00,40.00,41,22,60,0.00
2013-2-6,39.0,34.0,24.0,25.0,15.6,7.0,66,47,30,0.00,40.00,26,15,36,0.00
2013-2-7,39.0,27.9,16.0,13.0,1.5,-18.0,69,37,10,0.00,40.00,22,8,30,0.00
2013-2-8,42.0,32.3,20.0,20.0,3.5,-16.0,71,31,10,0.00,40.00,14,8,22,0.00
2013-2-9,29.0,20.3,17.0,25.0,17.2,13.0,96,88,55,0.00,40.00,19,8,24,0.67
2013-2-10,17.0,12.6,0.0,15.0,9.5,-7.0,94,87,71,0.00,40.00,22,14,28,0.10
2013-2-11,23.0,7.4,-3.0,4.0,-4.9,-13.0,75,57,33,0.00,40.00,25,8,40,0.00
2013-2-12,20.0,13.9,4.0,12.0,1.2,-7.0,75,57,42,0.00,40.00,34,16,45,0.00
2013-2-13,26.0,22.9,19.0,20.0,16.2,11.0,87,75,69,0.00,40.00,49,34,66,0.04
2013-2-14,24.0,17.5,12.0,19.0,13.3,9.0,95,84,69,0.00,40.00,32,17,44,0.49
2013-2-15,26.0,19.8,10.0,16.0,12.2,8.0,93,72,60,0.00,40.00,35,24,50,0.00
2013-2-16,37.0,31.6,25.0,17.0,12.9,8.0,65,47,31,0.00,40.00,44,35,59,0.00
2013-2-17,39.0,30.8,17.0,23.0,8.8,-3.0,93,45,20,0.00,40.00,34,24,48,0.37
2013-2-18,20.0,16.8,10.0,16.0,9.2,-2.0,94,72,37,0.00,40.00,27,17,40,0.01
2013-2-19,36.0,21.1,10.0,13.0,1.3,-7.0,68,42,23,0.00,40.00,21,6,29,0.00
2013-2-20,38.0,26.3,18.0,24.0,11.4,4.0,96,57,26,0.00,40.00,12,7,16,0.01
2013-2-21,19.0,16.6,15.0,17.0,13.2,7.0,95,87,67,0.00,40.00,24,9,31,0.04
2013-2-22,21.0,17.7,15.0,12.0,6.8,4.0,74,62,49,0.00,40.00,46,23,62,0.00
2013-2-23,34.0,25.6,18.0,20.0,12.7,5.0,87,58,43,0.00,40.00,45,14,61,0.00
2013-2-24,22.0,15.1,5.0,17.0,11.6,-4.0,94,86,63,0.00,40.00,18,11,22,0.57
2013-2-25,27.0,16.2,6.0,10.0,4.9,-2.0,73,61,43,0.00,40.00,27,9,37,0.00
2013-2-26,23.0,17.7,14.0,16.0,12.0,8.0,94,79,58,0.00,40.00,30,18,43,0.49
2013-2-27,20.0,15.9,9.0,9.0,5.5,1.0,78,64,45,0.00,40.00,28,18,38,0.00
2013-2-28,26.0,21.0,17.0,15.0,9.5,4.0,72,61,51,0.00,40.00,37,28,50,0.00
2013-3-1,36.0,29.4,23.0,25.0,19.0,10.0,74,65,52,0.00,40.00,33,27,45,0.00
2013-3-2,46.0,40.1,31.0,24.0,19.0,14.0,72,44,30,0.00,40.00,29,20,40,0.00
2013-3-3,43.0,36.5,32.0,31.0,23.9,14.0,93,63,31,0.00,40.00,40,29,54,1.46
2013-3-4,32.0,19.9,12.0,23.0,11.7,3.0,92,71,58,0.00,40.00,42,25,55,0.16
2013-3-5,42.0,28.4,12.0,10.0,0.0,-12.0,68,32,11,0.00,40.00,26,10,43,0.00
2013-3-6,51.0,41.7,33.0,16.0,7.9,-11.0,39,25,13,0.00,40.00,27,12,41,0.00
2013-3-7,44.0,38.2,28.0,26.0,20.4,12.0,70,50,30,0.00,40.00,37,10,48,0.00
2013-3-8,49.0,37.7,28.0,27.0,16.3,6.0,94,45,18,0.00,40.00,20,9,27,0.00
2013-3-9,32.0,24.4,18.0,27.0,20.6,13.0,98,86,68,0.00,40.00,26,16,32,0.30
2013-3-10,35.0,26.5,17.0,17.0,12.6,1.0,94,58,31,0.00,40.00,32,22,44,0.02
2013-3-11,33.0,27.6,21.0,28.0,18.7,12.0,97,72,44,0.00,40.00,39,22,54,0.74
2013-3-12,36.0,26.5,14.0,26.0,21.0,13.0,96,81,63,0.00,40.00,32,19,45,0.00
2013-3-13,45.0,39.2,34.0,27.0,25.3,20.0,75,58,39,0.00,40.00,35,27,51,0.01
2013-3-14,52.0,46.1,40.0,25.0,20.0,16.0,52,36,25,0.00,40.00,29,20,39,0.00
2013-3-15,54.0,49.6,40.0,29.0,17.8,11.0,64,29,19,0.00,40.00,35,27,50,0.00
2013-3-16,46.0,39.1,28.0,29.0,16.0,2.0,86,43,18,0.00,40.00,34,18,45,0.01
2013-3-17,37.0,30.9,19.0,26.0,10.2,-2.0,87,44,22,0.00,40.00,44,27,63,0.29
2013-3-18,31.0,23.1,16.0,19.0,5.9,2.0,80,48,31,0.00,40.00,37,24,50,0.00
2013-3-19,36.0,26.5,18.0,9.0,0.7,-11.0,60,36,13,0.00,40.00,39,24,55,0.00
2013-3-20,45.0,34.5,20.0,26.0,8.2,-12.0,69,36,14,0.00,40.00,35,16,49,0.01
2013-3-21,38.0,33.9,27.0,31.0,23.4,17.0,96,66,52,0.00,40.00,31,14,42,0.18
2013-3-22,25.0,19.3,15.0,15.0,8.0,-1.0,87,63,33,0.00,40.00,30,16,39,0.16
2013-3-23,15.0,11.2,7.0,13.0,8.9,5.0,93,90,84,0.00,40.00,19,11,22,0.14
2013-3-25,27.0,19.4,11.0,10.0,3.4,-5.0,63,50,38,0.00,40.00,18,11,23,0.00
2013-3-26,40.0,30.6,14.0,28.0,16.5,-6.0,88,56,31,0.00,40.00,26,12,37,0.00
2013-3-27,46.0,35.2,25.0,26.0,23.2,18.0,88,64,34,0.00,40.00,21,7,27,0.00
2013-3-28,50.0,41.4,31.0,25.0,21.1,18.0,72,46,28,0.00,40.00,19,9,27,0.00
2013-3-29,51.0,41.5,34.0,35.0,26.4,22.0,85,56,34,0.00,40.00,31,13,40,0.03
2013-3-30,50.0,39.8,28.0,29.0,22.6,-99.9,80,53,29,0.00,40.00,30,20,44,0.00
2013-3-31,53.0,41.9,30.0,23.0,13.2,1.0,69,33,16,0.00,40.00,32,17,46,0.00
2013-4-1,48.0,35.4,21.0,30.0,24.0,18.0,90,66,37,0.00,40.00,28,9,34,0.00
2013-4-2,38.0,32.8,29.0,33.0,29.1,24.0,98,87,62,0.00,40.00,17,9,22,0.01
2013-4-3,52.0,39.0,26.0,33.0,20.4,7.0,85,53,20,0.00,40.00,29,9,37,0.00
2013-4-4,56.0,45.5,33.0,27.0,22.7,18.0,74,43,25,0.00,40.00,22,12,30,0.00
2013-4-5,54.0,45.6,37.0,38.0,24.2,17.0,83,46,25,0.00,40.00,34,17,47,0.01
2013-4-6,47.0,38.7,33.0,31.0,24.2,20.0,76,57,37,0.00,40.00,34,19,47,0.00
2013-4-7,46.0,38.7,35.0,30.0,25.3,17.0,82,59,35,0.00,40.00,30,20,44,0.00
2013-4-8,47.0,31.8,13.0,29.0,22.2,11.0,96,71,35,0.00,40.00,29,12,38,0.20
2013-4-9,13.0,5.7,0.0,11.0,3.1,-3.0,93,89,85,0.00,40.00,14,7,19,0.09
2013-4-10,29.0,15.9,0.0,23.0,8.4,-3.0,90,73,44,0.00,40.00,34,19,46,0.00
2013-4-11,37.0,32.4,28.0,28.0,24.9,22.0,97,74,54,0.00,40.00,35,21,46,0.09
2013-4-12,41.0,31.5,25.0,31.0,25.5,17.0,98,80,37,0.00,40.00,30,11,40,0.03
2013-4-13,46.0,37.6,28.0,32.0,20.6,11.0,98,54,29,0.00,40.00,47,20,70,0.04
2013-4-14,30.0,23.2,16.0,21.0,8.8,0.0,91,55,32,0.00,40.00,35,25,48,0.01
2013-4-15,24.0,18.8,16.0,19.0,16.3,9.0,95,90,52,0.00,40.00,17,10,27,0.03
2013-4-16,24.0,18.9,15.0,23.0,17.3,13.0,95,94,91,0.00,40.00,37,20,44,0.38
2013-4-17,18.0,13.0,8.0,17.0,11.1,3.0,95,92,90,0.00,40.00,21,13,24,0.39
2013-4-18,24.0,14.9,3.0,14.0,7.1,1.0,92,72,50,0.00,40.00,32,22,43,0.03
2013-4-19,35.0,29.0,22.0,23.0,18.0,13.0,81,63,52,0.00,40.00,39,25,50,0.00
2013-4-20,42.0,35.9,32.0,31.0,25.9,21.0,96,67,50,0.00,40.00,26,14,34,0.04
2013-4-21,43.0,37.5,32.0,27.0,22.8,18.0,77,57,37,0.00,40.00,31,21,42,0.02
2013-4-22,40.0,23.0,12.0,31.0,19.3,10.0,97,87,48,0.00,40.00,26,14,37,0.74
2013-4-23,27.0,17.2,3.0,24.0,10.0,0.0,96,75,46,0.00,40.00,24,9,30,0.09
2013-4-24,38.0,29.8,17.0,16.0,9.9,5.0,68,44,26,0.00,40.00,24,15,32,0.00
2013-4-25,50.0,41.2,31.0,16.0,8.6,1.0,36,26,17,0.00,40.00,24,14,32,0.00
2013-4-26,53.0,43.0,30.0,20.0,13.7,9.0,51,32,16,0.00,40.00,16,8,21,0.00
2013-4-27,59.0,50.3,41.0,20.0,14.9,11.0,37,25,17,0.00,40.00,27,17,36,0.00
2013-4-28,62.0,53.0,44.0,30.0,23.3,18.0,57,32,21,0.00,40.00,33,21,47,0.00
2013-4-29,61.0,51.2,38.0,31.0,21.1,15.0,72,33,18,0.00,40.00,44,24,59,0.00
2013-4-30,51.0,40.1,26.0,33.0,29.8,22.0,98,69,31,0.00,40.00,34,16,52,0.30
2013-5-1,27.0,21.1,10.0,26.0,19.7,7.0,98,94,88,0.00,40.00,23,13,27,0.21
2013-5-2,40.0,25.5,10.0,19.0,10.4,4.0,87,57,25,0.00,40.00,26,10,33,0.00
2013-5-3,53.0,42.5,32.0,28.0,13.4,-99.9,61,33,18,0.00,40.00,17,12,26,0.00
2013-5-4,48.0,41.1,35.0,29.0,25.0,19.0,71,53,34,0.00,40.00,20,14,32,0.00
2013-5-5,49.0,39.4,28.0,33.0,25.0,20.0,80,58,36,0.00,40.00,22,12,29,0.00
2013-5-6,54.0,44.9,34.0,33.0,29.0,24.0,81,55,32,0.00,40.00,21,6,29,0.00
2013-5-7,56.0,44.8,36.0,40.0,32.6,28.0,84,63,35,0.00,40.00,19,6,27,0.00
2013-5-8,54.0,43.8,35.0,39.0,34.0,28.0,92,69,37,0.00,40.00,22,9,30,0.02
2013-5-9,52.0,42.8,35.0,40.0,34.6,29.0,94,74,44,0.00,40.00,15,7,25,0.14
2013-5-10,57.0,45.4,35.0,37.0,27.5,-99.9,93,56,26,0.00,40.00,24,8,43,0.00
2013-5-11,60.0,48.0,36.0,36.0,27.4,-99.9,82,50,19,0.00,40.00,23,9,32,0.00
2013-5-12,69.0,55.8,41.0,31.0,27.5,22.0,64,35,19,0.00,40.00,21,11,29,0.00
2013-5-13,73.0,63.1,51.0,33.0,29.9,26.0,47,29,18,0.00,40.00,17,12,26,0.00
2013-5-14,73.0,64.7,54.0,32.0,27.8,24.0,40,25,16,0.00,40.00,18,12,47,0.00
2013-5-15,67.0,57.8,49.0,43.0,34.4,29.0,78,43,24,0.00,40.00,26,12,35,0.00
2013-5-16,68.0,54.4,48.0,43.0,19.3,-99.9,83,43,17,0.00,40.00,32,13,40,0.00
2013-5-17,70.0,60.2,49.0,36.0,20.8,-99.9,55,27,13,0.00,40.00,21,13,34,0.00
2013-5-18,59.0,50.0,44.0,36.0,29.3,22.0,71,46,24,0.00,40.00,30,12,45,0.00
2013-5-19,44.0,43.4,43.0,32.0,32.0,32.0,67,65,62,0.00,40.00,24,20,34,0.00
2013-5-20,46.0,41.1,38.0,39.0,34.5,27.0,93,77,62,0.00,40.00,30,23,39,0.04
2013-5-21,54.0,44.0,35.0,32.0,27.9,24.0,74,54,35,0.00,40.00,24,16,35,0.00
2013-5-22,63.0,51.4,39.0,40.0,32.9,26.0,78,52,26,0.00,40.00,29,9,39,0.00
2013-5-23,63.0,51.3,40.0,45.0,41.8,38.0,96,72,48,0.00,40.00,37,25,46,0.00
2013-5-24,68.0,56.0,44.0,42.0,24.0,13.0,87,34,13,0.00,40.00,27,14,35,0.00
2013-5-25,72.0,60.4,46.0,43.0,19.5,12.0,68,24,11,0.00,40.00,22,11,37,0.00
2013-5-26,72.0,62.2,49.0,26.0,17.1,12.0,31,18,11,0.00,40.00,18,10,29,0.00
2013-5-27,65.0,57.1,45.0,30.0,21.9,13.0,49,26,17,0.00,40.00,30,13,42,0.00
2013-5-28,66.0,54.2,42.0,37.0,24.0,13.0,68,32,19,0.00,40.00,29,11,49,0.00
2013-5-29,52.0,44.7,39.0,39.0,35.0,28.0,89,69,38,0.00,40.00,35,15,44,0.01
2013-5-30,54.0,45.1,38.0,33.0,25.5,17.0,77,50,24,0.00,40.00,45,30,62,0.00
2013-5-31,55.0,45.0,37.0,33.0,24.3,19.0,68,46,25,0.00,40.00,39,27,57,0.00
2013-6-1,57.0,46.2,37.0,34.0,32.4,30.0,84,61,37,0.00,40.00,30,16,39,0.00
2013-6-2,73.0,58.8,38.0,32.0,23.9,18.0,74,31,13,0.00,40.00,18,11,30,0.00
2013-6-3,69.0,62.0,47.0,29.0,17.1,8.0,36,18,9,0.00,40.00,30,21,44,0.00
2013-6-4,66.0,50.6,37.0,38.0,25.1,16.0,74,40,17,0.00,40.00,29,10,42,0.00
2013-6-5,63.0,49.3,38.0,39.0,31.8,19.0,83,57,19,0.00,40.00,19,9,28,0.00
2013-6-6,68.0,55.7,41.0,37.0,27.1,22.0,72,35,21,0.00,40.00,12,7,23,0.00
2013-6-7,73.0,60.0,46.0,38.0,33.6,26.0,68,40,18,0.00,40.00,22,10,50,0.00
2013-6-8,67.0,58.4,48.0,44.0,32.2,23.0,82,40,18,0.00,40.00,26,16,40,0.00
2013-6-9,80.0,65.9,45.0,33.0,28.5,24.0,52,27,13,0.00,40.00,22,12,34,0.00
2013-6-10,84.0,72.8,60.0,32.0,28.4,24.0,30,20,12,0.00,40.00,30,11,50,0.00
2013-6-11,78.0,70.4,61.0,29.0,20.7,15.0,23,15,11,0.00,40.00,24,17,37,0.00
2013-6-12,80.0,67.9,53.0,41.0,28.0,22.0,44,24,12,0.00,40.00,22,10,31,0.00
2013-6-13,81.0,70.0,59.0,44.0,28.9,22.0,55,24,13,0.00,40.00,26,13,38,0.00
2013-6-14,75.0,64.6,53.0,31.0,22.6,16.0,39,21,12,0.00,40.00,27,15,37,0.00
2013-6-15,75.0,59.2,42.0,41.0,22.1,12.0,57,26,11,0.00,40.00,21,7,38,0.00
2013-6-16,74.0,62.5,51.0,36.0,23.7,12.0,52,24,10,0.00,40.00,29,11,41,0.00
2013-6-17,73.0,60.3,47.0,44.0,34.8,25.0,69,40,17,0.00,40.00,19,7,25,0.00
2013-6-18,72.0,61.4,48.0,47.0,36.9,22.0,91,46,16,0.00,40.00,24,13,39,0.00
2013-6-19,80.0,67.5,49.0,43.0,21.5,9.0,75,26,7,0.00,40.00,28,17,41,0.00
2013-6-20,71.0,57.9,51.0,22.0,15.2,7.0,27,19,13,0.00,40.00,21,10,26,0.00
2013-6-22,75.0,64.0,56.0,41.0,23.8,15.0,50,22,13,0.00,40.00,27,15,38,0.00
2013-6-23,74.0,60.9,41.0,32.0,23.7,11.0,60,27,10,0.00,40.00,19,10,33,0.00
2013-6-24,77.0,66.2,54.0,38.0,23.4,16.0,54,22,10,0.00,40.00,18,11,32,0.00
2013-6-25,72.0,63.2,49.0,37.0,33.8,28.0,59,34,24,0.00,40.00,27,14,39,0.00
2013-6-26,81.0,70.6,54.0,37.0,32.6,28.0,50,27,15,0.00,40.00,19,11,30,0.00
2013-6-27,85.0,72.5,60.0,37.0,31.3,26.0,40,24,12,0.00,40.00,19,10,28,0.00
2013-6-28,85.0,70.7,54.0,48.0,40.7,26.0,57,37,12,0.00,40.00,18,9,26,0.00
2013-6-29,82.0,69.0,52.0,51.0,42.7,32.0,80,43,17,0.00,40.00,18,8,25,0.00
2013-6-30,77.0,63.6,51.0,52.0,47.8,41.0,92,60,28,0.00,40.00,20,9,26,0.03
2013-7-1,73.0,62.6,53.0,49.0,43.0,38.0,73,51,30,0.00,40.00,18,9,24,0.00
2013-7-2,76.0,62.0,52.0,46.0,35.3,-99.9,66,43,20,0.00,40.00,13,8,19,0.00
2013-7-3,80.0,66.9,55.0,45.0,37.5,31.0,51,36,18,0.00,40.00,25,12,33,0.00
2013-7-4,80.0,68.2,58.0,51.0,41.9,34.0,74,41,19,0.00,40.00,20,8,28,0.00
2013-7-5,75.0,64.4,55.0,53.0,48.6,43.0,90,59,33,0.00,40.00,19,8,26,0.04
2013-7-6,78.0,67.5,54.0,52.0,41.0,30.0,89,41,18,0.00,40.00,29,12,38,0.00
2013-7-7,80.0,68.4,51.0,49.0,39.3,26.0,81,39,14,0.00,40.00,21,9,28,0.00
2013-7-8,77.0,66.5,58.0,47.0,40.2,36.0,54,39,23,0.00,40.00,21,10,29,0.00
2013-7-9,81.0,71.5,61.0,40.0,35.8,27.0,43,28,14,0.00,40.00,21,10,34,0.00
2013-7-10,84.0,69.9,58.0,49.0,32.2,-99.9,57,30,12,0.00,40.00,19,10,30,0.00
2013-7-11,88.0,73.2,61.0,50.0,35.2,-99.9,66,31,11,0.00,40.00,19,11,27,0.00
2013-7-12,79.0,68.9,57.0,57.0,48.6,43.0,95,51,31,0.00,40.00,31,12,48,0.04
2013-7-13,76.0,65.6,60.0,56.0,52.0,49.0,75,63,38,0.00,40.00,15,8,23,0.00
2013-7-15,75.0,69.6,60.0,55.0,52.6,48.0,81,56,39,0.00,40.00,24,15,31,0.00
2013-7-16,76.0,65.1,54.0,53.0,45.3,39.0,84,54,27,0.00,40.00,21,12,29,0.00
2013-7-17,82.0,63.7,52.0,50.0,47.2,42.0,83,58,30,0.00,40.00,19,9,24,0.00
2013-7-18,80.0,68.7,60.0,55.0,46.8,43.0,74,47,29,0.00,40.00,21,12,26,0.00
2013-7-19,77.0,65.8,54.0,54.0,47.7,41.0,72,54,29,0.00,40.00,23,11,29,0.00
2013-7-20,77.0,67.1,56.0,49.0,43.7,39.0,69,43,28,0.00,40.00,24,11,33,0.00
2013-7-21,84.0,71.0,54.0,49.0,29.3,13.0,65,26,7,0.00,40.00,24,10,40,0.00
2013-7-22,85.0,71.2,55.0,46.0,22.8,7.0,70,23,5,0.00,40.00,20,10,32,0.00
2013-7-23,69.0,64.0,60.0,28.0,19.9,11.0,29,20,11,0.00,40.00,12,9,17,0.00
2013-7-24,78.0,71.3,60.0,52.0,47.2,41.0,73,44,28,0.00,40.00,24,10,29,0.00
2013-7-25,68.0,60.8,53.0,51.0,47.4,44.0,92,63,41,0.00,40.00,19,9,24,0.00
2013-7-26,77.0,64.5,48.0,49.0,40.7,30.0,95,48,18,0.00,40.00,22,7,33,0.00
2013-7-27,76.0,64.6,55.0,53.0,41.5,31.0,91,48,19,0.00,40.00,17,6,28,0.00
2013-7-28,73.0,59.9,53.0,51.0,47.1,39.0,84,65,29,0.00,40.00,24,7,31,0.00
2013-7-29,71.0,62.8,55.0,45.0,39.0,27.0,65,44,19,0.00,40.00,24,11,31,0.00
2013-7-30,75.0,62.1,50.0,45.0,40.6,37.0,72,48,25,0.00,40.00,20,8,27,0.00
2013-7-31,77.0,65.4,52.0,49.0,40.6,32.0,70,44,19,0.00,40.00,17,8,26,0.00
2013-8-1,79.0,64.9,55.0,48.0,42.1,32.0,70,47,18,0.00,40.00,24,10,35,0.00
2013-8-2,79.0,69.2,58.0,46.0,39.9,32.0,62,36,19,0.00,40.00,29,15,39,0.00
2013-8-3,80.0,66.8,54.0,53.0,42.0,31.0,82,45,20,0.00,40.00,26,11,39,0.00
2013-8-4,78.0,68.8,54.0,49.0,37.3,28.0,80,36,17,0.00,40.00,22,12,30,0.00
2013-8-5,76.0,70.6,66.0,41.0,35.1,29.0,40,27,18,0.00,40.00,24,16,32,0.00
2013-8-6,79.0,68.8,55.0,40.0,32.2,23.0,56,28,12,0.00,40.00,22,12,36,0.00
2013-8-7,78.0,66.9,53.0,49.0,38.0,25.0,69,38,14,0.00,40.00,18,7,24,0.00
2013-8-8,70.0,58.6,46.0,47.0,39.6,31.0,97,52,24,0.00,40.00,21,7,29,0.00
2013-8-9,69.0,59.1,48.0,44.0,39.0,33.0,71,49,29,0.00,40.00,19,8,32,0.00
2013-8-10,76.0,63.3,48.0,43.0,35.2,27.0,76,39,17,0.00,40.00,21,9,32,0.00
2013-8-11,69.0,61.2,54.0,47.0,39.7,35.0,65,46,30,0.00,40.00,22,7,32,0.00
2013-9-28,-200.0,0.0,200.0,-99.9,-99.9,-99.9,0,0,100,0.00,40.00,20,20,29,0.00
2013-9-29,55.0,55.0,55.0,22.0,22.0,22.0,27,27,27,0.00,40.00,16,16,26,0.00